FW6835 Weather Reports


time (UTC)temp
F
wind
direction
speed
knots
gust
knots
rain 1hr
in
rain 24hr
in
rain mn
in
humidity
%
barometer
mb
20260831083050 60 190 0.0 6.1 0.01 0.13 0.13 95 1014.0
20260831082541 60 192 1.7 6.1 0.02 0.13 0.13 95 1014.0
20260831082040 59 159 0.0 2.6 0.02 0.13 0.13 95 1014.0
20260831081545 59 159 0.0 3.5 0.05 0.13 0.13 95 1013.9
20260831081039 59 145 0.0 5.2 0.06 0.13 0.13 95 1014.0
20260831080541 59 186 1.7 5.2 0.09 0.13 0.13 95 1014.0
20260831080036 58 157 0.9 3.5 0.10 0.13 0.13 95 1013.8
20260831075536 58 211 0.0 1.7 0.12 0.13 0.13 95 1013.9
20260831075036 58 211 0.0 2.6 0.12 0.13 0.13 96 1013.7
20260831074536 58 211 0.0 4.3 0.13 0.13 0.13 95 1013.8
20260831074037 58 210 0.0 4.3 0.13 0.13 0.13 96 1013.8
20260831073536 57 231 0.0 1.7 0.13 0.13 0.13 96 1014.0
20260831073035 57 243 0.0 0.9 0.13 0.13 0.13 95 1013.9
20260831072537 57 243 0.0 1.7 0.12 0.12 0.12 95 1013.9
20260831072034 57 241 0.0 0.0 0.10 0.10 0.10 94 1014.1
20260831071534 57 241 0.0 0.0 0.09 0.09 0.09 94 1014.1
20260831071031 57 241 0.0 0.0 0.07 0.07 0.07 93 1014.3
20260831070530 57 241 0.0 0.0 0.05 0.05 0.05 93 1014.3
20260831070040 57 241 0.0 0.9 0.02 0.02 0.02 92 1014.3
20260831065529 57 241 0.0 2.6 0.02 0.02 0.02 92 1014.4
20260831065029 57 244 0.0 4.3 0.02 0.02 0.02 90 1014.8
20260831064528 57 242 0.9 4.3 0.01 0.01 0.01 89 1015.0
20260831064028 58 240 1.7 6.1 0.00 0.00 0.00 88 1015.3
20260831063530 59 221 3.5 13.0 0.00 0.00 0.00 85 1015.4
20260831063025 62 238 2.6 13.0 0.00 0.00 0.00 81 1015.3
20260831062524 62 59 0.0 0.0 0.00 0.00 0.00 82 1014.3
20260831062023 62 68 0.0 0.0 0.00 0.00 0.00 81 1014.0
20260831061522 62 68 0.0 0.0 0.00 0.00 0.00 78 1013.7
20260831061022 62 71 0.0 0.0 0.00 0.00 0.00 79 1013.7
20260831060521 62 67 0.0 0.0 0.00 0.00 0.00 78 1013.6
20260831060021 62 76 0.0 0.0 0.00 0.00 0.00 79 1013.6
20260831055522 62 9 0.0 0.0 0.00 0.00 0.00 79 1013.5
20260831055023 62 57 0.0 0.0 0.00 0.00 0.00 79 1013.5
20260831054520 62 55 0.0 0.0 0.00 0.00 0.00 77 1013.5
20260831054022 62 55 0.0 0.0 0.00 0.00 0.00 77 1013.5
20260831053519 62 348 0.0 0.0 0.00 0.00 0.00 77 1013.5
20260831053019 62 78 0.0 0.0 0.00 0.00 0.00 77 1013.5
20260831052520 62 49 0.0 0.0 0.00 0.00 0.00 77 1013.5
20260831052017 62 47 0.0 0.0 0.00 0.00 0.00 77 1013.6
20260831051527 62 37 0.0 0.0 0.00 0.00 0.00 78 1013.6
20260831051016 62 53 0.0 0.0 0.00 0.00 0.00 78 1013.7
20260831050516 62 53 0.0 0.0 0.00 0.00 0.00 78 1013.6
20260831050015 62 53 0.0 0.0 0.00 0.00 0.00 78 1013.7
20260831045515 62 53 0.0 0.0 0.00 0.00 0.00 77 1013.6
20260831045014 62 53 0.0 0.0 0.00 0.00 0.00 77 1013.6
20260831044514 62 53 0.0 0.0 0.00 0.00 0.00 77 1013.7
20260831044013 62 53 0.0 0.0 0.00 0.00 0.00 77 1013.7
20260831043514 62 53 0.0 0.0 0.00 0.00 0.00 76 1013.7
20260831043012 62 61 0.0 0.0 0.00 0.00 0.00 77 1013.8
20260831042512 62 61 0.0 0.0 0.00 0.00 0.00 77 1013.7
20260831042011 62 59 0.0 0.0 0.00 0.00 0.00 78 1013.7
20260831041517 62 59 0.0 0.0 0.00 0.00 0.00 78 1013.8
20260831041014 61 59 0.0 0.0 0.00 0.00 0.00 78 1013.7
20260831040511 61 59 0.0 0.0 0.00 0.00 0.00 80 1013.7
20260831040033 61 59 0.0 0.0 0.00 0.00 0.00 79 1013.7
20260831035510 61 59 0.0 0.0 0.00 0.00 0.00 78 1013.8
20260831035012 61 59 0.0 0.0 0.00 0.00 0.00 79 1013.8
20260831034513 60 59 0.0 0.0 0.00 0.00 0.00 79 1013.7
20260831034010 60 59 0.0 0.0 0.00 0.00 0.00 79 1013.8
20260831033510 60 59 0.0 0.0 0.00 0.00 0.00 80 1013.9
20260831033012 60 59 0.0 0.0 0.00 0.00 0.00 80 1013.9
20260831032509 60 59 0.0 0.0 0.00 0.00 0.00 80 1014.1
20260831032009 60 59 0.0 0.0 0.00 0.00 0.00 80 1014.1
20260831031509 60 59 0.0 0.0 0.00 0.00 0.00 80 1014.0
20260831031007 60 59 0.0 0.0 0.00 0.00 0.00 79 1014.1
20260831030509 60 59 0.0 0.0 0.00 0.00 0.00 80 1014.1
20260831030009 60 59 0.0 0.0 0.00 0.00 0.00 80 1014.1
20260831025507 60 59 0.0 0.0 0.00 0.00 0.00 80 1014.2
20260831025006 60 59 0.0 0.0 0.00 0.00 0.00 80 1014.0
20260831024506 60 59 0.0 0.0 0.00 0.00 0.00 80 1014.2
20260831024007 60 59 0.0 0.0 0.00 0.00 0.00 81 1014.2
20260831023506 60 59 0.0 0.0 0.00 0.00 0.00 81 1014.2
20260831023006 59 59 0.0 0.0 0.00 0.00 0.00 81 1014.3
20260831022506 60 59 0.0 0.0 0.00 0.00 0.00 80 1014.4
20260831022004 60 59 0.0 0.0 0.00 0.00 0.00 80 1014.5
20260831021515 60 60 0.0 0.0 0.00 0.00 0.00 80 1014.5
20260831021004 60 60 0.0 0.0 0.00 0.00 0.00 80 1014.7
20260831020504 60 60 0.0 0.0 0.00 0.00 0.00 79 1014.5
20260831020004 60 60 0.0 0.0 0.00 0.00 0.00 80 1014.6
20260831015506 60 60 0.0 0.0 0.00 0.00 0.00 78 1014.6
20260831015006 60 60 0.0 0.0 0.00 0.00 0.00 79 1014.5
20260831014503 60 60 0.0 0.0 0.00 0.00 0.00 79 1014.5
20260831014006 60 60 0.0 0.0 0.00 0.00 0.00 79 1014.6
20260831013503 60 60 0.0 0.0 0.00 0.00 0.00 80 1014.6
20260831013002 60 60 0.0 0.0 0.00 0.00 0.00 80 1014.7
20260831012502 60 60 0.0 0.0 0.00 0.00 0.00 80 1014.8
20260831012002 60 60 0.0 0.0 0.00 0.00 0.00 80 1014.7
20260831011601 60 61 0.0 0.0 0.00 0.00 0.00 80 1014.7
20260831011100 60 61 0.0 0.0 0.00 0.00 0.00 80 1014.8
20260831010601 60 61 0.0 0.0 0.00 0.00 0.00 80 1014.8
20260831010131 60 61 0.0 0.0 0.00 0.00 0.00 80 1014.9
20260831005559 60 61 0.0 1.7 0.00 0.00 0.00 80 1014.8
20260831005059 60 61 0.0 1.7 0.00 0.00 0.00 80 1014.9
20260831004600 60 61 0.9 2.6 0.00 0.00 0.00 79 1015.0
20260831004102 60 61 0.9 2.6 0.00 0.00 0.00 79 1015.0
20260831003559 60 61 0.9 1.7 0.00 0.00 0.00 79 1015.0
20260831003059 60 61 0.9 1.7 0.00 0.00 0.00 79 1015.0
20260831002559 60 61 0.9 1.7 0.00 0.00 0.00 79 1015.0
20260831002058 60 61 0.9 1.7 0.00 0.00 0.00 79 1015.0
20260831001607 60 61 0.9 1.7 0.00 0.00 0.00 79 1015.0
20260831001058 60 61 0.9 2.6 0.00 0.00 0.00 80 1015.0
20260831000558 60 61 0.9 2.6 0.00 0.00 0.00 79 1015.0
20260831000058 60 61 0.9 2.6 0.00 0.00 0.00 79 1015.0
20260830235558 60 61 0.9 2.6 0.00 0.00 0.00 79 1015.1
20260830235057 60 61 0.9 2.6 0.00 0.00 0.00 78 1015.0
20260830234557 60 61 0.9 2.6 0.00 0.00 0.00 79 1014.9
20260830234056 60 61 0.9 2.6 0.00 0.00 0.00 79 1015.1
20260830233558 60 61 0.9 2.6 0.00 0.00 0.00 79 1015.1
20260830233055 60 63 0.9 2.6 0.00 0.00 0.00 79 1015.1
20260830232558 60 63 0.9 2.6 0.00 0.00 0.00 79 1015.1
20260830232054 60 57 0.9 2.6 0.00 0.00 0.00 79 1015.1
20260830231554 60 57 0.9 1.7 0.00 0.00 0.00 79 1015.1
20260830231056 60 49 0.9 1.7 0.00 0.00 0.00 80 1015.2
20260830230552 60 49 0.0 1.7 0.00 0.00 0.00 79 1015.1
20260830230054 61 46 0.0 0.0 0.00 0.00 0.00 79 1015.2
20260830225550 61 44 0.0 0.0 0.00 0.00 0.00 80 1015.2
20260830225050 61 44 0.0 0.0 0.00 0.00 0.00 80 1015.2
20260830224556 61 44 0.0 0.0 0.00 0.00 0.00 80 1015.2
20260830224049 61 44 0.0 0.0 0.00 0.00 0.00 80 1015.2
20260830223552 61 44 0.0 0.0 0.00 0.00 0.00 80 1015.2
20260830223049 62 44 0.0 0.0 0.00 0.00 0.00 79 1015.2
20260830222547 62 44 0.0 0.0 0.00 0.00 0.00 78 1015.1
20260830222048 62 44 0.0 0.0 0.00 0.00 0.00 77 1015.2
20260830221545 62 44 0.0 0.0 0.00 0.00 0.00 76 1015.3
20260830221044 63 44 0.0 0.0 0.00 0.00 0.00 76 1015.3
20260830220543 63 44 0.0 0.0 0.00 0.00 0.00 75 1015.2
20260830220056 63 44 0.0 0.0 0.00 0.00 0.00 76 1015.3
20260830215542 63 44 0.0 0.0 0.00 0.00 0.00 74 1015.3
20260830215041 63 44 0.0 1.7 0.00 0.00 0.00 75 1015.2
20260830214546 63 44 0.0 1.7 0.00 0.00 0.00 75 1015.3
20260830214041 63 296 0.0 0.0 0.00 0.00 0.00 75 1015.3
20260830213541 62 293 0.0 0.0 0.00 0.00 0.00 75 1015.3
20260830213042 62 293 0.0 0.9 0.00 0.00 0.00 77 1015.4
20260830212541 62 291 0.0 0.9 0.00 0.00 0.00 76 1015.2
20260830212041 62 286 0.0 0.0 0.00 0.00 0.00 76 1015.2
20260830211540 62 286 0.0 0.0 0.00 0.00 0.00 76 1015.2
20260830211040 62 286 0.0 0.0 0.00 0.00 0.00 76 1015.2
20260830210540 62 286 0.0 0.0 0.00 0.00 0.00 76 1015.2
20260830210041 62 286 0.0 0.0 0.00 0.00 0.00 76 1015.2
20260830205540 63 285 0.0 0.0 0.00 0.00 0.00 76 1015.2
20260830205040 63 284 0.0 0.0 0.00 0.00 0.00 76 1015.2
20260830204540 63 284 0.0 0.0 0.00 0.00 0.00 76 1015.2
20260830204044 63 284 0.0 0.0 0.00 0.00 0.00 75 1015.2
20260830203540 63 284 0.0 0.0 0.00 0.00 0.00 75 1015.1
20260830203040 63 284 0.0 0.0 0.00 0.00 0.00 76 1015.0
20260830202539 63 284 0.0 0.0 0.00 0.00 0.00 75 1015.1
20260830202038 64 284 0.0 0.0 0.00 0.00 0.00 74 1015.1
20260830201539 64 284 0.0 0.0 0.00 0.00 0.00 74 1015.1
20260830201038 64 284 0.0 0.0 0.00 0.00 0.00 73 1015.1
20260830200539 64 279 0.0 0.0 0.00 0.00 0.00 72 1015.1
20260830200038 64 279 0.0 0.0 0.00 0.00 0.00 72 1015.0
20260830195538 64 279 0.0 0.0 0.00 0.00 0.00 73 1015.1
20260830195042 64 279 0.0 0.0 0.00 0.00 0.00 72 1015.0
20260830194537 64 277 0.0 0.0 0.00 0.00 0.00 72 1015.1
20260830194037 64 277 0.0 0.0 0.00 0.00 0.00 73 1015.0
20260830193536 64 277 0.0 0.0 0.00 0.00 0.00 72 1014.9
20260830193037 64 276 0.0 0.0 0.00 0.00 0.00 73 1014.9
20260830192536 64 275 0.0 0.0 0.00 0.00 0.00 73 1015.0
20260830192037 64 273 0.0 0.0 0.00 0.00 0.00 74 1015.0
20260830191536 64 273 0.0 1.7 0.00 0.00 0.00 74 1015.1
20260830191036 64 273 0.0 1.7 0.00 0.00 0.00 75 1015.0
20260830190536 64 272 0.9 1.7 0.00 0.00 0.00 75 1015.0
20260830190038 64 271 0.9 1.7 0.00 0.00 0.00 75 1015.0
20260830185538 64 270 0.9 2.6 0.00 0.00 0.00 76 1015.1
20260830185035 64 268 0.9 2.6 0.00 0.00 0.00 75 1014.9
20260830184534 64 265 0.9 1.7 0.00 0.00 0.00 75 1014.9
20260830184038 64 265 0.9 2.6 0.00 0.00 0.00 75 1014.8
20260830183539 64 265 0.9 2.6 0.00 0.00 0.00 73 1014.8
20260830183034 64 263 0.9 1.7 0.00 0.00 0.00 73 1014.8
20260830182538 65 261 0.0 1.7 0.00 0.00 0.00 71 1014.6
20260830182034 65 261 0.0 1.7 0.00 0.00 0.00 72 1014.7
20260830181540 65 261 0.0 1.7 0.00 0.00 0.00 73 1014.7
20260830181033 65 261 0.9 1.7 0.00 0.00 0.00 72 1014.6
20260830180536 65 261 0.9 1.7 0.00 0.00 0.00 73 1014.5
20260830180050 65 261 0.9 1.7 0.00 0.00 0.00 74 1014.5
20260830175532 65 261 0.9 1.7 0.00 0.00 0.00 74 1014.4
20260830175032 65 259 0.9 1.7 0.00 0.00 0.00 74 1014.4
20260830174536 65 258 0.9 2.6 0.00 0.00 0.00 74 1014.4
20260830174034 66 257 0.9 2.6 0.00 0.00 0.00 73 1014.3
20260830173535 66 256 0.9 2.6 0.00 0.00 0.00 73 1014.3
20260830173054 67 255 0.9 2.6 0.00 0.00 0.00 72 1014.3
20260830172533 67 252 0.9 1.7 0.00 0.00 0.00 73 1014.2
20260830172033 68 252 0.9 1.7 0.00 0.00 0.00 70 1014.2
20260830171531 69 252 0.0 1.7 0.00 0.00 0.00 69 1014.3
20260830171030 70 252 0.0 2.6 0.00 0.00 0.00 67 1014.3
20260830170531 71 251 0.0 2.6 0.00 0.00 0.00 66 1014.2
20260830170030 71 246 0.0 2.6 0.00 0.00 0.00 63 1014.1
20260830165533 72 250 0.0 2.6 0.00 0.00 0.00 63 1014.2
20260830165030 72 217 0.0 2.6 0.00 0.00 0.00 62 1014.2
20260830164530 73 223 0.0 1.7 0.00 0.00 0.00 62 1014.1
20260830164030 73 233 0.0 2.6 0.00 0.00 0.00 61 1014.2
20260830163530 73 247 0.9 3.5 0.00 0.00 0.00 61 1014.2
20260830163030 73 205 0.9 4.3 0.00 0.00 0.00 61 1014.1
20260830162531 73 254 0.9 4.3 0.00 0.00 0.00 61 1014.2
20260830162028 73 246 0.0 6.1 0.00 0.00 0.00 61 1014.1
20260830161529 73 242 1.7 7.0 0.00 0.00 0.00 60 1014.1
20260830161030 73 276 1.7 7.0 0.00 0.00 0.00 60 1014.1
20260830160528 74 248 1.7 5.2 0.00 0.00 0.00 59 1014.1
20260830160128 74 206 0.9 4.3 0.00 0.00 0.00 60 1014.1
20260830155531 74 265 1.7 6.1 0.00 0.00 0.00 59 1014.1
20260830155027 74 216 2.6 6.1 0.00 0.00 0.00 57 1014.1
20260830154531 74 235 0.9 6.1 0.00 0.00 0.00 60 1014.1
20260830154028 74 206 2.6 6.1 0.00 0.00 0.00 59 1014.2
20260830153529 73 201 1.7 7.8 0.00 0.00 0.00 60 1014.2
20260830153026 73 188 1.7 7.8 0.00 0.00 0.00 59 1014.3
20260830152525 73 265 1.7 5.2 0.00 0.00 0.00 60 1014.1
20260830152025 73 178 1.7 7.0 0.00 0.00 0.00 57 1014.2
20260830151525 74 230 1.7 7.0 0.00 0.00 0.00 59 1014.1
20260830151024 75 204 0.9 5.2 0.00 0.00 0.00 58 1014.2
20260830150525 75 294 0.9 7.0 0.00 0.00 0.00 59 1014.2
20260830150023 75 218 2.6 7.0 0.00 0.00 0.00 59 1014.3
20260830145524 74 259 3.5 9.6 0.00 0.00 0.00 61 1014.3
20260830145023 74 266 2.6 7.8 0.00 0.00 0.00 58 1014.4
20260830144526 74 226 2.6 7.8 0.00 0.00 0.00 60 1014.1
20260830144026 73 279 1.7 10.4 0.00 0.00 0.00 60 1014.2
20260830143522 73 229 2.6 10.4 0.00 0.00 0.00 62 1014.2
20260830143026 73 240 3.5 8.7 0.00 0.00 0.00 59 1014.3
20260830142522 74 198 2.6 8.7 0.00 0.00 0.00 59 1014.2
20260830142020 74 192 3.5 8.7 0.00 0.00 0.00 59 1014.3
20260830141520 75 188 4.3 9.6 0.00 0.00 0.00 59 1014.3
20260830141020 74 227 3.5 9.6 0.00 0.00 0.00 60 1014.2
20260830140523 75 325 2.6 8.7 0.00 0.00 0.00 60 1014.2
20260830140020 75 210 4.3 8.7 0.00 0.00 0.00 58 1014.3
20260830135521 75 267 3.5 8.7 0.00 0.00 0.00 61 1014.3
20260830135027 75 268 2.6 8.7 0.00 0.00 0.00 58 1014.2
20260830134536 75 258 3.5 9.6 0.00 0.00 0.00 58 1014.2
20260830134019 75 178 2.6 9.6 0.00 0.00 0.00 61 1014.2
20260830133518 75 185 2.6 11.3 0.00 0.00 0.00 58 1014.2
20260830133025 75 263 3.5 11.3 0.00 0.00 0.00 59 1014.3
20260830132516 75 232 4.3 10.4 0.00 0.00 0.00 60 1014.3
20260830132020 75 257 2.6 9.6 0.00 0.00 0.00 58 1014.3
20260830131518 74 286 3.5 13.0 0.00 0.00 0.00 58 1014.4
20260830131017 75 254 4.3 13.0 0.00 0.00 0.00 58 1014.3
20260830130617 75 188 3.5 10.4 0.00 0.00 0.00 58 1014.4
20260830130016 75 294 2.6 10.4 0.00 0.00 0.00 61 1014.2
20260830125516 75 250 3.5 10.4 0.00 0.00 0.00 62 1014.3
20260830125016 75 229 2.6 9.6 0.00 0.00 0.00 62 1014.3
20260830124518 74 196 4.3 11.3 0.00 0.00 0.00 62 1014.3
20260830124013 74 263 5.2 11.3 0.00 0.00 0.00 59 1014.3
20260830123512 74 193 4.3 13.9 0.00 0.00 0.00 60 1014.3
20260830123015 74 239 6.1 13.9 0.00 0.00 0.00 59 1014.2
20260830122511 73 158 3.5 11.3 0.00 0.00 0.00 61 1014.3
20260830122009 73 176 3.5 13.0 0.00 0.00 0.00 63 1014.4
20260830121508 73 217 4.3 8.7 0.00 0.00 0.00 62 1014.2
20260830121007 73 175 4.3 12.2 0.00 0.00 0.00 64 1014.4
20260830120507 72 233 5.2 12.2 0.00 0.00 0.00 65 1014.4
20260830120007 72 311 3.5 10.4 0.00 0.00 0.00 68 1014.2
20260830115506 72 161 3.5 11.3 0.00 0.00 0.00 67 1014.4
20260830115009 71 280 2.6 9.6 0.00 0.00 0.00 69 1014.3
20260830114508 71 198 2.6 9.6 0.00 0.00 0.00 69 1014.4
20260830114006 71 250 2.6 7.0 0.00 0.00 0.00 68 1014.4
20260830113506 71 199 2.6 12.2 0.00 0.00 0.00 69 1014.5
20260830113006 71 276 3.5 12.2 0.00 0.00 0.00 67 1014.5
20260830112504 71 244 3.5 8.7 0.00 0.00 0.00 68 1014.4
20260830112004 71 177 2.6 13.9 0.00 0.00 0.00 69 1014.4
20260830111504 71 144 4.3 13.0 0.00 0.00 0.00 68 1014.7
20260830111004 71 279 2.6 9.6 0.00 0.00 0.00 71 1014.4
20260830110503 71 189 4.3 9.6 0.00 0.00 0.00 69 1014.4
20260830110005 71 223 3.5 11.3 0.00 0.00 0.00 70 1014.6
20260830105503 72 259 5.2 11.3 0.00 0.00 0.00 67 1014.5
20260830105002 72 280 2.6 8.7 0.00 0.00 0.00 71 1014.4
20260830104501 72 197 2.6 10.4 0.00 0.00 0.00 72 1014.5
20260830104100 72 188 4.3 14.8 0.00 0.00 0.00 70 1014.4
20260830103600 71 171 4.3 14.8 0.00 0.00 0.00 71 1014.6
20260830103101 71 221 4.3 12.2 0.00 0.00 0.00 70 1014.8
20260830102600 71 194 3.5 13.0 0.00 0.00 0.00 72 1014.7
20260830102058 70 188 3.5 13.0 0.00 0.00 0.00 73 1014.7
20260830101559 71 199 3.5 8.7 0.00 0.00 0.00 71 1014.7
20260830101058 71 184 4.3 8.7 0.00 0.00 0.00 71 1014.7
20260830100557 71 194 4.3 8.7 0.00 0.00 0.00 72 1014.8
20260830100056 71 274 3.5 8.7 0.00 0.00 0.00 74 1014.6
20260830095555 71 183 2.6 7.8 0.00 0.00 0.00 75 1014.9
20260830095053 70 196 3.5 9.6 0.00 0.00 0.00 74 1014.8
20260830094553 70 220 3.5 9.6 0.00 0.00 0.00 75 1014.8
20260830094052 70 171 3.5 9.6 0.00 0.00 0.00 74 1014.9
20260830093551 70 228 3.5 10.4 0.00 0.00 0.00 75 1014.9
20260830093116 69 244 5.2 10.4 0.00 0.00 0.00 73 1015.0
20260830092553 69 246 1.7 8.7 0.00 0.00 0.00 76 1014.9
20260830092050 70 140 4.3 8.7 0.00 0.00 0.00 74 1015.1
20260830091549 69 169 2.6 7.8 0.00 0.00 0.00 76 1015.0
20260830091047 69 148 4.3 7.0 0.00 0.00 0.00 74 1015.0
20260830090549 68 116 3.5 7.8 0.00 0.00 0.00 78 1015.0
20260830090050 68 202 1.7 6.1 0.00 0.00 0.00 78 1015.0
20260830085548 68 214 0.9 7.0 0.00 0.00 0.00 79 1014.9
20260830085044 67 165 1.7 7.0 0.00 0.00 0.00 80 1015.1
20260830084549 68 175 2.6 7.0 0.00 0.00 0.00 78 1015.1
20260830084048 67 217 2.6 7.8 0.00 0.00 0.00 79 1015.1
20260830083542 67 198 1.7 8.7 0.00 0.00 0.00 79 1015.1